[[{"header":{"parameterUnit":"m.s-1","parameterCategory":1,"la1":30.2991,"la2":30.254,"lo1":-89.0895,"lo2":-89.0444,"dy":0.0017,"dx":0.0017,"nx":28,"ny":28,"refTime":"2024-07-30T03:00:00:Z","depth":0,"parameterNumber":2,"parameterNumberName":"U-component_of_WINDS"},"data":[0,0,0,0,0,0,0,0,0,0,0,0,0,0,0,0,0,0,0,0,0,0,0,0,0,0,0,0,0,0,0,0,0,0,0,0,0,0,0,0,0,0,0,0,0,0,0,0,0,0,0,0,0,0,0,0,0,0,2.2314,2.2315,0,2.2349,2.235,2.235,2.2312,2.231,2.2309,2.2307,2.2346,2.2348,2.235,0,0,0,0,0,0,0,0,0,0,0,0,0,2.2218,2.222,2.2314,2.2315,2.2315,2.2349,2.235,2.235,2.2312,2.231,2.2308,2.2307,2.2345,2.2348,2.2351,0,0,0,0,0,0,0,0,0,0,0,0,0,2.2257,2.2221,2.2314,2.23,2.2299,2.2349,2.235,2.235,2.2312,2.231,2.2308,2.2306,2.2344,2.2347,2.2351,2.2417,0,0,2.2362,2.2363,0,0,0,0,0,0,0,0,2.2255,2.2261,2.2302,2.2301,2.23,2.2324,2.233,2.2373,2.2313,2.2307,2.2307,2.2305,2.234,2.2344,2.2356,2.2419,2.242,2.2362,2.2364,2.2366,2.2367,0,0,0,0,0,0,0,2.2252,2.2259,2.2328,2.2302,2.2302,2.2293,2.2296,2.2338,2.2336,2.2308,2.2305,2.231,2.234,2.2352,2.2356,2.2421,2.2362,2.2365,2.2368,2.2369,2.2543,2.2545,0,0,0,0,0,0,2.2251,2.2257,2.2327,2.2329,2.2272,2.2297,2.23,2.2319,2.2335,2.2336,2.2311,2.2308,2.2347,2.2352,2.2357,2.2437,2.2366,2.2369,2.2371,2.254,2.2543,2.2546,0,0,0,0,0,0,2.2249,2.2257,2.2326,2.2292,2.23,2.2301,2.2322,2.232,2.2333,2.2338,2.2338,2.2324,2.2346,2.2352,2.2403,2.2438,2.2371,2.2374,2.2537,2.2541,2.2544,2.2597,0,0,0,0,0,0,2.2246,2.2257,2.2281,2.2293,2.2302,2.2369,2.2324,2.2323,2.2339,2.2334,2.235,2.2351,2.2344,2.2398,2.2406,2.2442,2.2377,2.2534,2.2539,2.2543,2.2592,2.2602,2.261,0,0,0,0,0,2.2243,2.2294,2.2282,2.2291,2.2332,2.2372,2.2377,2.2368,2.2342,2.2367,2.2371,2.235,2.2433,2.2403,2.2413,2.245,2.2532,2.2538,2.2543,2.2588,2.26,2.261,0,0,0,0,0,0,2.2287,2.2296,2.2282,2.2339,2.2355,2.2365,2.2396,2.2381,2.2404,2.2399,2.2388,2.2392,2.2446,2.2452,2.242,2.2516,2.2478,2.2486,2.2509,2.2521,2.253,2.2527,2.238,0,0,0,0,0,2.2303,2.2333,2.234,2.2389,2.2398,2.2396,2.2412,2.2404,2.242,2.2427,2.2434,2.2451,2.2481,2.2501,2.2529,2.2593,2.2597,2.2623,2.2632,2.264,2.2647,2.2683,2.2696,2.2564,2.2564,2.2564,0,0,2.2337,2.2346,2.2365,2.2398,2.2409,2.2442,2.2402,2.2437,2.2462,2.2433,2.2481,2.2487,2.2506,2.2564,2.2589,2.2571,2.2684,2.2647,2.2653,2.2656,2.269,2.2703,2.2714,2.2568,2.2567,2.2567,0,0,2.2416,2.2425,2.2468,2.248,2.2497,2.2496,2.2506,2.2519,2.2522,2.257,2.2549,2.2579,2.263,2.2645,2.2659,2.2746,2.2729,2.2755,2.2803,2.2839,2.2849,2.2858,2.2891,2.2903,2.2762,2.2762,2.2762,0,2.2456,2.2504,2.2492,2.253,2.2546,2.252,2.2565,2.2578,2.2604,2.2616,2.2594,2.266,2.267,2.2732,2.2753,2.2765,2.2778,2.2753,2.2848,2.2858,2.2866,2.2897,2.2909,2.2765,2.2765,2.2764,2.2764,0,2.2554,2.2587,2.262,2.2645,2.2665,2.2706,2.2702,2.2724,2.2714,2.2716,2.2766,2.2778,2.2809,2.2822,2.2813,2.2884,2.2872,2.285,2.2812,2.2882,2.2911,2.2923,2.277,2.2769,2.2768,2.2767,0,0,2.2661,2.268,2.2693,2.2705,2.2723,2.2749,2.279,2.2819,2.2839,2.2858,2.2893,2.2938,2.2918,2.2934,2.2926,2.2957,2.3027,2.2931,2.2932,2.295,2.3108,2.3126,2.314,2.3016,2.3018,2.302,2.3107,0,2.2741,2.2811,2.2803,2.287,2.2902,2.2879,2.2915,2.2931,2.2933,2.2962,2.2965,2.2998,2.2968,2.2978,2.3007,2.3013,2.3059,2.3006,2.305,2.3052,2.3047,2.3154,2.3173,2.3255,2.3118,2.312,2.3121,0,2.2844,2.2867,2.2938,2.2953,2.2966,2.2998,2.3025,2.3052,2.307,2.307,2.3089,2.3077,2.312,2.3081,2.314,2.3104,2.3122,2.3128,2.313,2.3135,2.3092,2.3164,2.328,2.3293,2.3139,2.3138,2.3136,0,2.2918,2.2966,2.3015,2.3026,2.3044,2.3068,2.3076,2.3092,2.3111,2.3135,2.3148,2.3177,2.3193,2.3216,2.3213,2.3184,2.3274,2.3234,2.3277,2.3277,2.3298,2.3297,2.342,2.3307,2.3307,2.3307,2.3306,0,2.301,2.3054,2.3049,2.3079,2.3129,2.3119,2.317,2.3175,2.319,2.3222,2.3204,2.3235,2.3227,2.3259,2.3256,2.3307,2.3314,2.3317,2.3316,2.3319,2.3319,2.3331,2.3326,2.331,2.3309,2.3308,2.3308,0,2.31,2.3098,2.315,2.3163,2.3168,2.3204,2.3216,2.3245,2.3246,2.3288,2.3297,2.33,2.3336,2.3334,2.3375,2.3373,2.3436,2.3428,2.343,2.3429,2.3472,2.3469,2.3609,2.3628,2.3501,2.3502,2.3503,0,2.3159,2.3193,2.321,2.323,2.324,2.3273,2.3292,2.3284,2.3305,2.3329,2.3356,2.339,2.3417,2.3476,2.3482,2.3514,2.3507,2.3554,2.3512,2.3515,2.351,2.3509,2.3513,2.3563,2.3565,2.3566,2.3567,0,2.3266,2.3263,2.3291,2.3319,2.3343,2.3365,2.3385,2.3403,2.3397,2.3422,2.3459,2.3479,2.3521,2.3556,2.3586,2.3597,2.3582,2.358,2.3592,2.3596,2.3597,2.3599,2.3454,2.3577,2.3576,2.3575,2.3574,2.3574,2.3343,2.3373,2.339,2.3422,2.3437,2.3456,2.3485,2.349,2.352,2.3553,2.3547,2.3588,2.3607,2.3647,2.366,2.3693,2.3676,2.3693,2.3697,2.3702,2.3708,2.359,2.3698,2.3698,2.3698,2.3697,2.3697,0,2.345,2.346,2.349,2.3518,2.3545,2.3527,2.3549,2.3572,2.3608,2.3627,2.3654,2.3697,2.3731,2.374,2.3773,2.3798,2.3792,2.3807,2.3806,2.3809,2.372,2.3707,2.3812,2.3812,2.3812,2.3811,2.3811,2.3811,2.3509,2.3559,2.3558,2.3616,2.3626,2.3665,2.368,2.3698,2.3713,2.3762,2.379,2.3795,2.3811,2.3845,2.3876,2.3878,2.3892,2.391,2.391,2.3826,2.3815,2.3804,2.3792,2.3913,2.3913,2.3996,2.3997,2.3998]},{"header":{"parameterUnit":"m.s-1","parameterCategory":1,"la1":30.2991,"la2":30.254,"lo1":-89.0895,"lo2":-89.0444,"dy":0.0017,"dx":0.0017,"nx":28,"ny":28,"refTime":"2024-07-30T03:00:00:Z","depth":0,"parameterNumber":3,"parameterNumberName":"V-component_of_WINDS"},"data":[0,0,0,0,0,0,0,0,0,0,0,0,0,0,0,0,0,0,0,0,0,0,0,0,0,0,0,0,0,0,0,0,0,0,0,0,0,0,0,0,0,0,0,0,0,0,0,0,0,0,0,0,0,0,0,0,0,0,-0.7148,-0.7148,0,-0.7149,-0.7149,-0.7149,-0.7159,-0.7159,-0.716,-0.716,-0.716,-0.716,-0.716,0,0,0,0,0,0,0,0,0,0,0,0,0,-0.7155,-0.7155,-0.7148,-0.7148,-0.7148,-0.7149,-0.7149,-0.7149,-0.7159,-0.7159,-0.716,-0.716,-0.716,-0.716,-0.716,0,0,0,0,0,0,0,0,0,0,0,0,0,-0.7153,-0.7155,-0.7148,-0.7153,-0.7153,-0.7149,-0.7149,-0.7149,-0.7159,-0.7159,-0.716,-0.716,-0.716,-0.716,-0.716,-0.715,0,0,-0.7159,-0.7158,0,0,0,0,0,0,0,0,-0.7153,-0.7153,-0.7152,-0.7152,-0.7153,-0.7154,-0.7151,-0.7149,-0.7159,-0.7157,-0.716,-0.716,-0.7158,-0.7158,-0.7157,-0.715,-0.715,-0.7159,-0.7158,-0.7158,-0.7158,0,0,0,0,0,0,0,-0.7153,-0.7153,-0.7148,-0.7152,-0.7153,-0.7155,-0.7156,-0.7151,-0.7155,-0.7157,-0.7158,-0.7158,-0.7158,-0.7157,-0.7157,-0.715,-0.7159,-0.7158,-0.7158,-0.7158,-0.7136,-0.7136,0,0,0,0,0,0,-0.7153,-0.7153,-0.7148,-0.7148,-0.7154,-0.7155,-0.7155,-0.7153,-0.7155,-0.7156,-0.7157,-0.7158,-0.7158,-0.7157,-0.7157,-0.7147,-0.7158,-0.7158,-0.7158,-0.7137,-0.7136,-0.7136,0,0,0,0,0,0,-0.7153,-0.7152,-0.7148,-0.7151,-0.715,-0.7154,-0.7152,-0.7153,-0.7152,-0.7155,-0.7156,-0.7156,-0.7158,-0.7158,-0.7152,-0.7147,-0.7158,-0.7157,-0.7137,-0.7136,-0.7136,-0.7125,0,0,0,0,0,0,-0.7153,-0.7152,-0.7148,-0.7151,-0.715,-0.7142,-0.7152,-0.7153,-0.7152,-0.7153,-0.7154,-0.7155,-0.7158,-0.7152,-0.7152,-0.7147,-0.7157,-0.7137,-0.7137,-0.7136,-0.7126,-0.7124,-0.7123,0,0,0,0,0,-0.7153,-0.7145,-0.7148,-0.7147,-0.7145,-0.7142,-0.7142,-0.7146,-0.7151,-0.7148,-0.715,-0.7155,-0.7148,-0.7152,-0.7151,-0.7146,-0.7138,-0.7137,-0.7136,-0.7127,-0.7125,-0.7123,0,0,0,0,0,0,-0.7141,-0.7145,-0.7149,-0.7141,-0.7141,-0.7144,-0.7139,-0.7144,-0.7142,-0.7143,-0.7149,-0.7149,-0.7143,-0.7144,-0.7148,-0.7137,-0.7144,-0.7143,-0.7137,-0.7135,-0.7133,-0.7133,-0.7157,0,0,0,0,0,-0.7138,-0.7135,-0.7138,-0.7131,-0.7131,-0.7135,-0.7134,-0.7137,-0.7138,-0.7138,-0.714,-0.714,-0.7138,-0.7136,-0.7135,-0.7126,-0.7127,-0.7123,-0.7121,-0.712,-0.7119,-0.7116,-0.7114,-0.7133,-0.7133,-0.7133,0,0,-0.713,-0.7132,-0.7129,-0.7128,-0.7129,-0.7126,-0.7135,-0.7131,-0.7129,-0.7137,-0.7132,-0.7134,-0.7135,-0.7128,-0.7125,-0.7128,-0.7114,-0.7119,-0.7118,-0.7117,-0.7115,-0.7113,-0.7112,-0.7132,-0.7133,-0.7133,0,0,-0.7115,-0.7116,-0.711,-0.7111,-0.7112,-0.7115,-0.7114,-0.7117,-0.7118,-0.7113,-0.712,-0.7118,-0.7114,-0.7114,-0.7114,-0.7101,-0.7106,-0.7101,-0.7093,-0.709,-0.7088,-0.7087,-0.7083,-0.7082,-0.71,-0.71,-0.71,0,-0.7105,-0.7101,-0.7107,-0.7103,-0.7103,-0.7111,-0.7105,-0.7106,-0.7106,-0.7106,-0.711,-0.7107,-0.7107,-0.7102,-0.7099,-0.7098,-0.7097,-0.71,-0.7088,-0.7087,-0.7086,-0.7082,-0.7081,-0.7099,-0.7099,-0.7099,-0.7099,0,-0.709,-0.7087,-0.7083,-0.7084,-0.7083,-0.7079,-0.7084,-0.7082,-0.7086,-0.7089,-0.7085,-0.7087,-0.7086,-0.7085,-0.7088,-0.708,-0.7083,-0.7087,-0.7094,-0.7083,-0.708,-0.7079,-0.7098,-0.7098,-0.7099,-0.7099,0,0,-0.7066,-0.7072,-0.707,-0.7071,-0.7074,-0.7072,-0.7069,-0.7068,-0.7068,-0.7068,-0.7066,-0.7063,-0.7068,-0.7068,-0.7071,-0.7069,-0.706,-0.7074,-0.7074,-0.7072,-0.7053,-0.705,-0.7048,-0.7063,-0.7063,-0.7063,-0.7053,0,-0.7053,-0.7047,-0.7053,-0.7046,-0.7044,-0.7052,-0.7049,-0.7051,-0.7054,-0.7053,-0.7056,-0.7054,-0.706,-0.7061,-0.7058,-0.7061,-0.7056,-0.7062,-0.7062,-0.7062,-0.7062,-0.7046,-0.7043,-0.7033,-0.7052,-0.7051,-0.7051,0,-0.7036,-0.7036,-0.703,-0.7035,-0.7034,-0.7031,-0.7032,-0.7031,-0.7034,-0.7036,-0.7037,-0.7042,-0.7039,-0.7046,-0.7043,-0.7047,-0.7047,-0.7049,-0.7048,-0.7049,-0.7056,-0.7047,-0.703,-0.7029,-0.7049,-0.7049,-0.7049,0,-0.7021,-0.702,-0.7016,-0.7017,-0.7022,-0.702,-0.7022,-0.7025,-0.7025,-0.7026,-0.7026,-0.7027,-0.7027,-0.7028,-0.7033,-0.7037,-0.703,-0.7036,-0.7032,-0.7032,-0.703,-0.703,-0.7014,-0.7029,-0.7029,-0.703,-0.703,0,-0.7005,-0.7001,-0.701,-0.7007,-0.7003,-0.701,-0.7006,-0.7009,-0.7011,-0.701,-0.7017,-0.7016,-0.7023,-0.7022,-0.7026,-0.7024,-0.7024,-0.7026,-0.7027,-0.7026,-0.7026,-0.7026,-0.7027,-0.7029,-0.7029,-0.7029,-0.7029,0,-0.6988,-0.6993,-0.699,-0.6995,-0.6996,-0.6993,-0.6998,-0.6997,-0.7,-0.6999,-0.6999,-0.7005,-0.7005,-0.7011,-0.7012,-0.7014,-0.7011,-0.7013,-0.701,-0.7011,-0.7007,-0.7007,-0.699,-0.6989,-0.7005,-0.7005,-0.7004,0,-0.6978,-0.6975,-0.698,-0.698,-0.6982,-0.6982,-0.6982,-0.6989,-0.6989,-0.6993,-0.6991,-0.6992,-0.6993,-0.6993,-0.6997,-0.6999,-0.7001,-0.6995,-0.7001,-0.7,-0.7002,-0.7002,-0.7003,-0.6994,-0.6994,-0.6994,-0.6993,0,-0.696,-0.6963,-0.6963,-0.6965,-0.6966,-0.6967,-0.6969,-0.6969,-0.6977,-0.6977,-0.6977,-0.6978,-0.698,-0.6981,-0.6983,-0.6986,-0.6991,-0.6992,-0.6991,-0.6989,-0.6988,-0.699,-0.7007,-0.6992,-0.6992,-0.6992,-0.6992,-0.6992,-0.6946,-0.6945,-0.6949,-0.6949,-0.6952,-0.6954,-0.6953,-0.6957,-0.6958,-0.696,-0.6964,-0.6965,-0.6968,-0.6972,-0.6974,-0.6975,-0.6978,-0.6976,-0.6976,-0.6976,-0.6975,-0.6988,-0.6975,-0.6975,-0.6975,-0.6975,-0.6975,0,-0.6929,-0.6933,-0.6933,-0.6936,-0.6937,-0.6943,-0.6946,-0.6946,-0.6946,-0.6949,-0.6951,-0.6952,-0.6954,-0.6959,-0.6961,-0.696,-0.6963,-0.6961,-0.6961,-0.6962,-0.6972,-0.6973,-0.6959,-0.6959,-0.6959,-0.6959,-0.6959,-0.6959,-0.6921,-0.6919,-0.6923,-0.6922,-0.6926,-0.6926,-0.6928,-0.693,-0.6933,-0.6934,-0.6936,-0.6939,-0.6943,-0.6946,-0.6948,-0.6949,-0.695,-0.6947,-0.695,-0.6959,-0.6961,-0.6962,-0.6963,-0.6947,-0.6947,-0.6939,-0.6939,-0.6939]}]]